"Sample Date","Sample Time","Sensor Name","Sample Value","Units","Flow Rate","Sample Interval","Sample Volume","Laser Status","Number Channels","Micron Size 0","Counts/Channel 0","Micron Size 1","Counts/Channel 1","Micron Size 2","Counts/Channel 2","Micron Size 3","Counts/Channel 3","Micron Size 4","Counts/Channel 4","Micron Size 5","Counts/Channel 5","Micron Size 6","Counts/Channel 6","Micron Size 7","Counts/Channel 7","Micron Size 8","Counts/Channel 8","Micron Size 9","Counts/Channel 9","Micron Size 10","Counts/Channel 10","Micron Size 11","Counts/Channel 11","Micron Size 12","Counts/Channel 12","Micron Size 13","Counts/Channel 13","Micron Size 14","Counts/Channel 14","Micron Size 15","Counts/Channel 15","Micron Size 16","Counts/Channel 16","Micron Size 17","Counts/Channel 17","Micron Size 18","Counts/Channel 18","Micron Size 19","Counts/Channel 19","Micron Size 20","Counts/Channel 20","Micron Size 21","Counts/Channel 21","Micron Size 22","Counts/Channel 22","Micron Size 23","Counts/Channel 23","Micron Size 24","Counts/Channel 24","Micron Size 25","Counts/Channel 25","Micron Size 26","Counts/Channel 26","Micron Size 27","Counts/Channel 27","Micron Size 28","Counts/Channel 28","Micron Size 29","Counts/Channel 29","Micron Size 30","Counts/Channel 30","Micron Size 31","Counts/Channel 31"
"07/11/06","14:00:04","AMMA06",85574.000,"cc",28357.701,6.00,2835.770,1,6,0.100,45557.000,0.200,32418.000,0.300,6242.000,0.500,928.000,1.000,429.000,5.000,0
"07/11/06","14:00:10","AMMA06",81215.000,"cc",28312.045,6.00,2831.205,1,6,0.100,43172.000,0.200,31306.000,0.300,5808.000,0.500,598.000,1.000,331.000,5.000,0
"07/11/06","14:00:16","AMMA06",82495.000,"cc",28316.719,6.00,2831.672,1,6,0.100,44616.000,0.200,31348.000,0.300,5621.000,0.500,590.000,1.000,320.000,5.000,0
"07/11/06","14:00:22","AMMA06",80363.000,"cc",28282.996,6.00,2828.300,1,6,0.100,43273.000,0.200,30839.000,0.300,5490.000,0.500,514.000,1.000,247.000,5.000,0
"07/11/06","14:00:28","AMMA06",80344.000,"cc",28304.441,6.00,2830.444,1,6,0.100,42831.000,0.200,31153.000,0.300,5480.000,0.500,577.000,1.000,303.000,5.000,0
"07/11/06","14:00:34","AMMA06",86069.000,"cc",28255.404,6.00,2825.541,1,6,0.100,46364.000,0.200,31977.000,0.300,6244.000,0.500,1010.000,1.000,474.000,5.000,0
"07/11/06","14:00:40","AMMA06",83772.000,"cc",28309.857,6.00,2830.986,1,6,0.100,45419.000,0.200,31474.000,0.300,5768.000,0.500,743.000,1.000,368.000,5.000,0
"07/11/06","14:00:46","AMMA06",79038.000,"cc",28364.818,6.00,2836.482,1,6,0.100,42189.000,0.200,30448.000,0.300,5510.000,0.500,609.000,1.000,282.000,5.000,0
"07/11/06","14:00:52","AMMA06",80744.000,"cc",28319.441,6.00,2831.944,1,6,0.100,42432.000,0.200,30837.000,0.300,6074.000,0.500,967.000,1.000,434.000,5.000,0
"07/11/06","14:00:58","AMMA06",80388.000,"cc",28288.397,6.00,2828.840,1,6,0.100,43575.000,0.200,30426.000,0.300,5498.000,0.500,619.000,1.000,270.000,5.000,0
"07/11/06","14:01:04","AMMA06",76913.000,"cc",28314.801,6.00,2831.480,1,6,0.100,41310.000,0.200,30021.000,0.300,5026.000,0.500,382.000,1.000,174.000,5.000,0
"07/11/06","14:01:10","AMMA06",77151.000,"cc",28278.027,6.00,2827.803,1,6,0.100,41431.000,0.200,29914.000,0.300,5101.000,0.500,472.000,1.000,233.000,5.000,0
"07/11/06","14:01:16","AMMA06",79481.000,"cc",28370.211,6.00,2837.021,1,6,0.100,42607.000,0.200,30207.000,0.300,5546.000,0.500,767.000,1.000,354.000,5.000,0
"07/11/06","14:01:22","AMMA06",80348.000,"cc",28326.117,6.00,2832.612,1,6,0.100,42709.000,0.200,30365.000,0.300,5913.000,0.500,900.000,1.000,461.000,5.000,0
"07/11/06","14:01:28","AMMA06",81518.000,"cc",28336.768,6.00,2833.677,1,6,0.100,43729.000,0.200,30543.000,0.300,5931.000,0.500,891.000,1.000,424.000,5.000,0
"07/11/06","14:01:34","AMMA06",79494.000,"cc",28297.816,6.00,2829.782,1,6,0.100,42851.000,0.200,29922.000,0.300,5564.000,0.500,824.000,1.000,333.000,5.000,0
"07/11/06","14:01:40","AMMA06",81208.000,"cc",28304.772,6.00,2830.477,1,6,0.100,44255.000,0.200,30532.000,0.300,5385.000,0.500,692.000,1.000,344.000,5.000,0
"07/11/06","14:01:46","AMMA06",77605.000,"cc",28337.617,6.00,2833.762,1,6,0.100,42195.000,0.200,29788.000,0.300,5029.000,0.500,398.000,1.000,195.000,5.000,0
"07/11/06","14:01:52","AMMA06",78219.000,"cc",28316.647,6.00,2831.665,1,6,0.100,42999.000,0.200,29722.000,0.300,4962.000,0.500,348.000,1.000,188.000,5.000,0
"07/11/06","14:01:58","AMMA06",81888.000,"cc",28300.463,6.00,2830.046,1,6,0.100,44387.000,0.200,30865.000,0.300,5487.000,0.500,794.000,1.000,355.000,5.000,0
"07/11/06","14:02:04","AMMA06",83031.000,"cc",28340.791,6.00,2834.079,1,6,0.100,45260.000,0.200,31112.000,0.300,5566.000,0.500,739.000,1.000,354.000,5.000,0
"07/11/06","14:02:10","AMMA06",81607.000,"cc",28326.088,6.00,2832.609,1,6,0.100,43749.000,0.200,30981.000,0.300,5702.000,0.500,795.000,1.000,380.000,5.000,0
"07/11/06","14:02:16","AMMA06",84772.000,"cc",28273.795,6.00,2827.380,1,6,0.100,46223.000,0.200,31381.000,0.300,5918.000,0.500,829.000,1.000,421.000,5.000,0
"07/11/06","14:02:22","AMMA06",83003.000,"cc",28312.938,6.00,2831.294,1,6,0.100,45344.000,0.200,31001.000,0.300,5603.000,0.500,706.000,1.000,349.000,5.000,0
"07/11/06","14:02:28","AMMA06",81437.000,"cc",28341.883,6.00,2834.189,1,6,0.100,43539.000,0.200,31080.000,0.300,5695.000,0.500,755.000,1.000,368.000,5.000,0
"07/11/06","14:02:34","AMMA06",81686.000,"cc",28308.598,6.00,2830.860,1,6,0.100,42611.000,0.200,31343.000,0.300,6180.000,0.500,1058.000,1.000,494.000,5.000,0
"07/11/06","14:02:40","AMMA06",77368.000,"cc",28317.674,6.00,2831.768,1,6,0.100,40582.000,0.200,30745.000,0.300,5245.000,0.500,533.000,1.000,263.000,5.000,0
"07/11/06","14:02:46","AMMA06",78162.000,"cc",28350.912,6.00,2835.091,1,6,0.100,41370.000,0.200,30894.000,0.300,5259.000,0.500,452.000,1.000,187.000,5.000,0
"07/11/06","14:02:52","AMMA06",77226.000,"cc",28282.631,6.00,2828.263,1,6,0.100,40388.000,0.200,31100.000,0.300,5180.000,0.500,363.000,1.000,195.000,5.000,0
"07/11/06","14:02:58","AMMA06",80407.000,"cc",28304.092,6.00,2830.409,1,6,0.100,42104.000,0.200,31811.000,0.300,5625.000,0.500,558.000,1.000,309.000,5.000,0
"07/11/06","14:03:04","AMMA06",86666.000,"cc",28425.467,6.00,2842.547,1,6,0.100,47149.000,0.200,32484.000,0.300,5846.000,0.500,775.000,1.000,412.000,5.000,0
"07/11/06","14:03:10","AMMA06",86298.000,"cc",28312.891,6.00,2831.289,1,6,0.100,46689.000,0.200,32442.000,0.300,6005.000,0.500,751.000,1.000,411.000,5.000,0
"07/11/06","14:03:16","AMMA06",101481.000,"cc",28264.570,6.00,2826.457,1,6,0.100,58237.000,0.200,34980.000,0.300,6729.000,0.500,971.000,1.000,564.000,5.000,0
"07/11/06","14:03:22","AMMA06",87547.000,"cc",28325.639,6.00,2832.564,1,6,0.100,47843.000,0.200,32837.000,0.300,5922.000,0.500,599.000,1.000,346.000,5.000,0
"07/11/06","14:03:28","AMMA06",84539.000,"cc",28344.262,6.00,2834.426,1,6,0.100,45160.000,0.200,32422.000,0.300,5849.000,0.500,726.000,1.000,382.000,5.000,0
"07/11/06","14:03:34","AMMA06",81870.000,"cc",28279.256,6.00,2827.926,1,6,0.100,43402.000,0.200,31928.000,0.300,5585.000,0.500,623.000,1.000,332.000,5.000,0
"07/11/06","14:03:40","AMMA06",82850.000,"cc",28308.004,6.00,2830.801,1,6,0.100,44429.000,0.200,31642.000,0.300,5755.000,0.500,714.000,1.000,310.000,5.000,0
"07/11/06","14:03:46","AMMA06",82058.000,"cc",28295.652,6.00,2829.565,1,6,0.100,43844.000,0.200,32187.000,0.300,5447.000,0.500,394.000,1.000,186.000,5.000,0
"07/11/06","14:03:52","AMMA06",80934.000,"cc",28356.289,6.00,2835.629,1,6,0.100,43052.000,0.200,31971.000,0.300,5370.000,0.500,368.000,1.000,173.000,5.000,0
"07/11/06","14:03:58","AMMA06",78592.000,"cc",28296.627,6.00,2829.663,1,6,0.100,41539.000,0.200,31222.000,0.300,5218.000,0.500,399.000,1.000,214.000,5.000,0
"07/11/06","14:04:04","AMMA06",95044.000,"cc",28319.828,6.00,2831.983,1,6,0.100,53900.000,0.200,33059.000,0.300,6402.000,0.500,1031.000,1.000,652.000,5.000,0
"07/11/06","14:04:10","AMMA06",102526.000,"cc",28313.436,6.00,2831.344,1,6,0.100,59003.000,0.200,35104.000,0.300,6791.000,0.500,1020.000,1.000,608.000,5.000,0
"07/11/06","14:04:16","AMMA06",96655.000,"cc",28371.260,6.00,2837.126,1,6,0.100,54955.000,0.200,33156.000,0.300,6580.000,0.500,1240.000,1.000,724.000,5.000,0
"07/11/06","14:04:22","AMMA06",87811.000,"cc",28307.545,6.00,2830.755,1,6,0.100,47610.000,0.200,32564.000,0.300,6180.000,0.500,914.000,1.000,543.000,5.000,0
"07/11/06","14:04:28","AMMA06",81701.000,"cc",28309.272,6.00,2830.927,1,6,0.100,42666.000,0.200,31620.000,0.300,6006.000,0.500,900.000,1.000,509.000,5.000,0
"07/11/06","14:04:34","AMMA06",83680.000,"cc",28296.660,6.00,2829.666,1,6,0.100,44308.000,0.200,32323.000,0.300,5912.000,0.500,730.000,1.000,407.000,5.000,0
"07/11/06","14:04:40","AMMA06",80897.000,"cc",28342.475,6.00,2834.248,1,6,0.100,42754.000,0.200,31820.000,0.300,5620.000,0.500,461.000,1.000,242.000,5.000,0
"07/11/06","14:04:46","AMMA06",91292.000,"cc",28329.174,6.00,2832.918,1,6,0.100,50494.000,0.200,33660.000,0.300,6128.000,0.500,675.000,1.000,335.000,5.000,0
"07/11/06","14:04:52","AMMA06",80795.000,"cc",28299.129,6.00,2829.913,1,6,0.100,41957.000,0.200,31941.000,0.300,5866.000,0.500,716.000,1.000,315.000,5.000,0
"07/11/06","14:04:58","AMMA06",88663.000,"cc",28328.891,6.00,2832.889,1,6,0.100,48098.000,0.200,33266.000,0.300,6173.000,0.500,730.000,1.000,396.000,5.000,0
"07/11/06","14:05:04","AMMA06",84409.000,"cc",28285.951,6.00,2828.595,1,6,0.100,45141.000,0.200,32414.000,0.300,5868.000,0.500,625.000,1.000,361.000,5.000,0
"07/11/06","14:05:10","AMMA06",93710.000,"cc",28324.795,6.00,2832.480,1,6,0.100,51266.000,0.200,34231.000,0.300,6653.000,0.500,1015.000,1.000,545.000,5.000,0
"07/11/06","14:05:16","AMMA06",84464.000,"cc",28310.867,6.00,2831.087,1,6,0.100,43954.000,0.200,32770.000,0.300,6269.000,0.500,938.000,1.000,533.000,5.000,0
"07/11/06","14:05:22","AMMA06",82320.000,"cc",28285.670,6.00,2828.567,1,6,0.100,43016.000,0.200,32223.000,0.300,5968.000,0.500,719.000,1.000,394.000,5.000,0
"07/11/06","14:05:28","AMMA06",82369.000,"cc",28330.711,6.00,2833.071,1,6,0.100,42803.000,0.200,32300.000,0.300,6032.000,0.500,776.000,1.000,458.000,5.000,0
"07/11/06","14:05:34","AMMA06",79651.000,"cc",28293.209,6.00,2829.321,1,6,0.100,41283.000,0.200,31624.000,0.300,5681.000,0.500,683.000,1.000,380.000,5.000,0
"07/11/06","14:05:40","AMMA06",79214.000,"cc",28337.738,6.00,2833.774,1,6,0.100,41722.000,0.200,31357.000,0.300,5466.000,0.500,440.000,1.000,229.000,5.000,0
"07/11/06","14:05:46","AMMA06",77277.000,"cc",28302.703,6.00,2830.271,1,6,0.100,40384.000,0.200,30915.000,0.300,5343.000,0.500,420.000,1.000,215.000,5.000,0
"07/11/06","14:05:52","AMMA06",79649.000,"cc",28300.453,6.00,2830.045,1,6,0.100,40679.000,0.200,31912.000,0.300,5956.000,0.500,715.000,1.000,387.000,5.000,0
"07/11/06","14:05:58","AMMA06",80173.000,"cc",28346.920,6.00,2834.692,1,6,0.100,41574.000,0.200,31547.000,0.300,5899.000,0.500,751.000,1.000,402.000,5.000,0
"07/11/06","14:06:04","AMMA06",78907.000,"cc",28308.949,6.00,2830.895,1,6,0.100,41357.000,0.200,31257.000,0.300,5417.000,0.500,604.000,1.000,272.000,5.000,0
"07/11/06","14:06:10","AMMA06",80719.000,"cc",28285.379,6.00,2828.538,1,6,0.100,42431.000,0.200,31643.000,0.300,5661.000,0.500,649.000,1.000,335.000,5.000,0
"07/11/06","14:06:16","AMMA06",78263.000,"cc",28360.660,6.00,2836.066,1,6,0.100,40890.000,0.200,30984.000,0.300,5531.000,0.500,548.000,1.000,310.000,5.000,0
"07/11/06","14:06:22","AMMA06",80681.000,"cc",28313.412,6.00,2831.341,1,6,0.100,42956.000,0.200,31375.000,0.300,5515.000,0.500,559.000,1.000,276.000,5.000,0
"07/11/06","14:06:28","AMMA06",77007.000,"cc",28302.576,6.00,2830.258,1,6,0.100,40585.000,0.200,30413.000,0.300,5324.000,0.500,464.000,1.000,221.000,5.000,0
"07/11/06","14:06:34","AMMA06",77860.000,"cc",28325.174,6.00,2832.518,1,6,0.100,40767.000,0.200,30788.000,0.300,5420.000,0.500,602.000,1.000,283.000,5.000,0
"07/11/06","14:06:40","AMMA06",77389.000,"cc",28309.674,6.00,2830.968,1,6,0.100,40887.000,0.200,30497.000,0.300,5236.000,0.500,493.000,1.000,276.000,5.000,0
"07/11/06","14:06:46","AMMA06",85026.000,"cc",28381.088,6.00,2838.109,1,6,0.100,45774.000,0.200,31615.000,0.300,6089.000,0.500,1062.000,1.000,486.000,5.000,0
"07/11/06","14:06:52","AMMA06",79406.000,"cc",28367.451,6.00,2836.745,1,6,0.100,42335.000,0.200,30596.000,0.300,5488.000,0.500,665.000,1.000,322.000,5.000,0
"07/11/06","14:06:58","AMMA06",80235.000,"cc",28290.619,6.00,2829.062,1,6,0.100,43243.000,0.200,30719.000,0.300,5399.000,0.500,581.000,1.000,293.000,5.000,0
"07/11/06","14:07:04","AMMA06",77650.000,"cc",28292.471,6.00,2829.247,1,6,0.100,41459.000,0.200,30158.000,0.300,5340.000,0.500,484.000,1.000,209.000,5.000,0
"07/11/06","14:07:10","AMMA06",77969.000,"cc",28309.848,6.00,2830.985,1,6,0.100,41482.000,0.200,30169.000,0.300,5446.000,0.500,613.000,1.000,259.000,5.000,0
"07/11/06","14:07:16","AMMA06",82748.000,"cc",28228.129,6.00,2822.813,1,6,0.100,43294.000,0.200,31002.000,0.300,6516.000,0.500,1269.000,1.000,667.000,5.000,0
"07/11/06","14:07:22","AMMA06",82834.000,"cc",28394.080,6.00,2839.408,1,6,0.100,43580.000,0.200,31321.000,0.300,6279.000,0.500,1127.000,1.000,526.000,5.000,1.000
"07/11/06","14:07:28","AMMA06",77727.000,"cc",28308.467,6.00,2830.847,1,6,0.100,41430.000,0.200,30356.000,0.300,5241.000,0.500,458.000,1.000,242.000,5.000,0
"07/11/06","14:07:34","AMMA06",81701.000,"cc",28307.410,6.00,2830.741,1,6,0.100,44500.000,0.200,31030.000,0.300,5350.000,0.500,535.000,1.000,286.000,5.000,0
"07/11/06","14:07:40","AMMA06",76373.000,"cc",28316.209,6.00,2831.621,1,6,0.100,40546.000,0.200,30165.000,0.300,5112.000,0.500,366.000,1.000,184.000,5.000,0
"07/11/06","14:07:46","AMMA06",77500.000,"cc",28344.633,6.00,2834.463,1,6,0.100,40941.000,0.200,30656.000,0.300,5256.000,0.500,430.000,1.000,217.000,5.000,0
"07/11/06","14:07:52","AMMA06",76067.000,"cc",28291.881,6.00,2829.188,1,6,0.100,40260.000,0.200,30212.000,0.300,5034.000,0.500,368.000,1.000,193.000,5.000,0
"07/11/06","14:07:58","AMMA06",76984.000,"cc",28281.715,6.00,2828.172,1,6,0.100,40503.000,0.200,30553.000,0.300,5237.000,0.500,465.000,1.000,226.000,5.000,0
"07/11/06","14:08:04","AMMA06",78108.000,"cc",28309.244,6.00,2830.925,1,6,0.100,40715.000,0.200,30955.000,0.300,5552.000,0.500,594.000,1.000,292.000,5.000,0
"07/11/06","14:08:10","AMMA06",77889.000,"cc",28351.910,6.00,2835.191,1,6,0.100,40560.000,0.200,31199.000,0.300,5438.000,0.500,466.000,1.000,226.000,5.000,0
"07/11/06","14:08:16","AMMA06",79354.000,"cc",28322.539,6.00,2832.254,1,6,0.100,41771.000,0.200,31412.000,0.300,5459.000,0.500,472.000,1.000,240.000,5.000,0
"07/11/06","14:08:22","AMMA06",76950.000,"cc",28273.461,6.00,2827.346,1,6,0.100,40003.000,0.200,30973.000,0.300,5296.000,0.500,471.000,1.000,207.000,5.000,0
"07/11/06","14:08:28","AMMA06",78102.000,"cc",28376.895,6.00,2837.690,1,6,0.100,40155.000,0.200,31228.000,0.300,5725.000,0.500,632.000,1.000,362.000,5.000,0
"07/11/06","14:08:34","AMMA06",77636.000,"cc",28300.557,6.00,2830.056,1,6,0.100,40314.000,0.200,31230.000,0.300,5418.000,0.500,441.000,1.000,233.000,5.000,0
"07/11/06","14:08:40","AMMA06",78693.000,"cc",28296.607,6.00,2829.661,1,6,0.100,40269.000,0.200,31647.000,0.300,5676.000,0.500,685.000,1.000,416.000,5.000,0
"07/11/06","14:08:46","AMMA06",78669.000,"cc",28298.178,6.00,2829.818,1,6,0.100,40238.000,0.200,31516.000,0.300,5745.000,0.500,774.000,1.000,396.000,5.000,0
"07/11/06","14:08:52","AMMA06",76775.000,"cc",28356.627,6.00,2835.663,1,6,0.100,39848.000,0.200,30961.000,0.300,5316.000,0.500,437.000,1.000,213.000,5.000,0
"07/11/06","14:08:58","AMMA06",77608.000,"cc",28295.768,6.00,2829.577,1,6,0.100,40279.000,0.200,31093.000,0.300,5474.000,0.500,490.000,1.000,272.000,5.000,0
"07/11/06","14:09:04","AMMA06",76650.000,"cc",28372.291,6.00,2837.229,1,6,0.100,39508.000,0.200,30983.000,0.300,5397.000,0.500,485.000,1.000,277.000,5.000,0
"07/11/06","14:09:10","AMMA06",77302.000,"cc",28344.822,6.00,2834.482,1,6,0.100,40094.000,0.200,31023.000,0.300,5383.000,0.500,529.000,1.000,273.000,5.000,0
"07/11/06","14:09:16","AMMA06",80053.000,"cc",28287.770,6.00,2828.777,1,6,0.100,42080.000,0.200,31135.000,0.300,5707.000,0.500,736.000,1.000,395.000,5.000,0
"07/11/06","14:09:22","AMMA06",79921.000,"cc",28292.623,6.00,2829.263,1,6,0.100,41930.000,0.200,31145.000,0.300,5737.000,0.500,728.000,1.000,380.000,5.000,1.000
"07/11/06","14:09:28","AMMA06",81378.000,"cc",28306.758,6.00,2830.676,1,6,0.100,42867.000,0.200,31551.000,0.300,5822.000,0.500,783.000,1.000,355.000,5.000,0
"07/11/06","14:09:34","AMMA06",79346.000,"cc",28344.197,6.00,2834.420,1,6,0.100,42277.000,0.200,30685.000,0.300,5520.000,0.500,567.000,1.000,297.000,5.000,0
"07/11/06","14:09:40","AMMA06",87063.000,"cc",28301.195,6.00,2830.120,1,6,0.100,44348.000,0.200,32468.000,0.300,7614.000,0.500,1785.000,1.000,848.000,5.000,0
"07/11/06","14:09:46","AMMA06",83699.000,"cc",28322.826,6.00,2832.283,1,6,0.100,44556.000,0.200,31155.000,0.300,6391.000,0.500,1064.000,1.000,533.000,5.000,0
"07/11/06","14:09:52","AMMA06",79019.000,"cc",28345.025,6.00,2834.503,1,6,0.100,41720.000,0.200,30790.000,0.300,5513.000,0.500,655.000,1.000,341.000,5.000,0
"07/11/06","14:09:58","AMMA06",86742.000,"cc",28354.791,6.00,2835.479,1,6,0.100,46940.000,0.200,31908.000,0.300,6327.000,0.500,1057.000,1.000,510.000,5.000,0
"07/11/06","14:10:04","AMMA06",79999.000,"cc",28263.096,6.00,2826.310,1,6,0.100,43069.000,0.200,30750.000,0.300,5321.000,0.500,564.000,1.000,295.000,5.000,0
"07/11/06","14:10:10","AMMA06",78399.000,"cc",28299.139,6.00,2829.914,1,6,0.100,41543.000,0.200,30401.000,0.300,5478.000,0.500,666.000,1.000,311.000,5.000,0
"07/11/06","14:10:16","AMMA06",77042.000,"cc",28253.883,6.00,2825.388,1,6,0.100,40631.000,0.200,30297.000,0.300,5323.000,0.500,546.000,1.000,245.000,5.000,0
"07/11/06","14:10:22","AMMA06",78116.000,"cc",28341.279,6.00,2834.128,1,6,0.100,41374.000,0.200,30373.000,0.300,5445.000,0.500,637.000,1.000,287.000,5.000,0
"07/11/06","14:10:28","AMMA06",79061.000,"cc",28377.940,6.00,2837.794,1,6,0.100,42177.000,0.200,30819.000,0.300,5247.000,0.500,563.000,1.000,255.000,5.000,0
"07/11/06","14:10:34","AMMA06",75553.000,"cc",28330.299,6.00,2833.030,1,6,0.100,39953.000,0.200,30022.000,0.300,5016.000,0.500,379.000,1.000,183.000,5.000,0
"07/11/06","14:10:40","AMMA06",77427.000,"cc",28300.311,6.00,2830.031,1,6,0.100,40763.000,0.200,30526.000,0.300,5326.000,0.500,542.000,1.000,270.000,5.000,0
"07/11/06","14:10:46","AMMA06",76915.000,"cc",28323.076,6.00,2832.308,1,6,0.100,40779.000,0.200,30430.000,0.300,5096.000,0.500,430.000,1.000,180.000,5.000,0
"07/11/06","14:10:52","AMMA06",78862.000,"cc",28296.625,6.00,2829.663,1,6,0.100,41070.000,0.200,30777.000,0.300,5800.000,0.500,850.000,1.000,365.000,5.000,0
"07/11/06","14:10:58","AMMA06",79446.000,"cc",28347.549,6.00,2834.755,1,6,0.100,42073.000,0.200,30658.000,0.300,5624.000,0.500,733.000,1.000,358.000,5.000,0
"07/11/06","14:11:04","AMMA06",76274.000,"cc",28282.633,6.00,2828.263,1,6,0.100,40035.000,0.200,30575.000,0.300,5094.000,0.500,376.000,1.000,194.000,5.000,0
"07/11/06","14:11:10","AMMA06",78872.000,"cc",28312.252,6.00,2831.225,1,6,0.100,40937.000,0.200,30871.000,0.300,5832.000,0.500,811.000,1.000,421.000,5.000,0
"07/11/06","14:11:16","AMMA06",77228.000,"cc",28342.777,6.00,2834.278,1,6,0.100,40452.000,0.200,30426.000,0.300,5490.000,0.500,579.000,1.000,281.000,5.000,0
"07/11/06","14:11:22","AMMA06",76413.000,"cc",28302.436,6.00,2830.244,1,6,0.100,39901.000,0.200,30307.000,0.300,5483.000,0.500,480.000,1.000,242.000,5.000,0
"07/11/06","14:11:28","AMMA06",76383.000,"cc",28350.053,6.00,2835.005,1,6,0.100,39838.000,0.200,30683.000,0.300,5162.000,0.500,453.000,1.000,247.000,5.000,0
"07/11/06","14:11:34","AMMA06",78896.000,"cc",28293.881,6.00,2829.388,1,6,0.100,40154.000,0.200,31425.000,0.300,5928.000,0.500,887.000,1.000,502.000,5.000,0
"07/11/06","14:11:40","AMMA06",78896.000,"cc",28280.469,6.00,2828.047,1,6,0.100,40828.000,0.200,31177.000,0.300,5642.000,0.500,793.000,1.000,456.000,5.000,0
"07/11/06","14:11:46","AMMA06",79005.000,"cc",28331.883,6.00,2833.189,1,6,0.100,40643.000,0.200,31338.000,0.300,5864.000,0.500,770.000,1.000,390.000,5.000,0
"07/11/06","14:11:52","AMMA06",77640.000,"cc",28343.100,6.00,2834.310,1,6,0.100,40196.000,0.200,31289.000,0.300,5355.000,0.500,540.000,1.000,260.000,5.000,0
"07/11/06","14:11:58","AMMA06",78749.000,"cc",28281.625,6.00,2828.163,1,6,0.100,40434.000,0.200,31501.000,0.300,5729.000,0.500,699.000,1.000,386.000,5.000,0
"07/11/06","14:12:04","AMMA06",77741.000,"cc",28290.990,6.00,2829.099,1,6,0.100,39958.000,0.200,31495.000,0.300,5549.000,0.500,476.000,1.000,263.000,5.000,0
"07/11/06","14:12:10","AMMA06",79930.000,"cc",28379.023,6.00,2837.903,1,6,0.100,40541.000,0.200,31947.000,0.300,6107.000,0.500,877.000,1.000,457.000,5.000,1.000
"07/11/06","14:12:16","AMMA06",80359.000,"cc",28305.703,6.00,2830.571,1,6,0.100,41486.000,0.200,31865.000,0.300,5833.000,0.500,775.000,1.000,400.000,5.000,0
"07/11/06","14:12:22","AMMA06",77887.000,"cc",28297.955,6.00,2829.796,1,6,0.100,39948.000,0.200,31641.000,0.300,5523.000,0.500,501.000,1.000,274.000,5.000,0
"07/11/06","14:12:28","AMMA06",78404.000,"cc",28344.022,6.00,2834.402,1,6,0.100,39938.000,0.200,31664.000,0.300,5822.000,0.500,632.000,1.000,348.000,5.000,0
"07/11/06","14:12:34","AMMA06",78131.000,"cc",28330.150,6.00,2833.015,1,6,0.100,39578.000,0.200,31710.000,0.300,5730.000,0.500,733.000,1.000,380.000,5.000,0
"07/11/06","14:12:40","AMMA06",78313.000,"cc",28322.096,6.00,2832.210,1,6,0.100,40108.000,0.200,31635.000,0.300,5607.000,0.500,619.000,1.000,344.000,5.000,0
"07/11/06","14:12:46","AMMA06",79601.000,"cc",28269.535,6.00,2826.954,1,6,0.100,40876.000,0.200,31961.000,0.300,5750.000,0.500,670.000,1.000,344.000,5.000,0
"07/11/06","14:12:52","AMMA06",77327.000,"cc",28311.313,6.00,2831.131,1,6,0.100,39182.000,0.200,31654.000,0.300,5620.000,0.500,587.000,1.000,284.000,5.000,0
"07/11/06","14:12:58","AMMA06",77106.000,"cc",28298.768,6.00,2829.877,1,6,0.100,39062.000,0.200,31878.000,0.300,5403.000,0.500,526.000,1.000,237.000,5.000,0
"07/11/06","14:13:04","AMMA06",78277.000,"cc",28379.147,6.00,2837.915,1,6,0.100,39386.000,0.200,32244.000,0.300,5800.000,0.500,537.000,1.000,310.000,5.000,0
"07/11/06","14:13:10","AMMA06",79398.000,"cc",28298.213,6.00,2829.822,1,6,0.100,39785.000,0.200,32270.000,0.300,6120.000,0.500,807.000,1.000,416.000,5.000,0
"07/11/06","14:13:16","AMMA06",82891.000,"cc",28309.262,6.00,2830.926,1,6,0.100,41803.000,0.200,32987.000,0.300,6531.000,0.500,986.000,1.000,584.000,5.000,0
"07/11/06","14:13:22","AMMA06",80670.000,"cc",28307.205,6.00,2830.721,1,6,0.100,40082.000,0.200,32870.000,0.300,6460.000,0.500,840.000,1.000,418.000,5.000,0
"07/11/06","14:13:28","AMMA06",79385.000,"cc",28316.275,6.00,2831.628,1,6,0.100,39898.000,0.200,32431.000,0.300,5970.000,0.500,747.000,1.000,338.000,5.000,1.000
"07/11/06","14:13:34","AMMA06",81319.000,"cc",28328.969,6.00,2832.897,1,6,0.100,40794.000,0.200,32505.000,0.300,6518.000,0.500,971.000,1.000,531.000,5.000,0
"07/11/06","14:13:40","AMMA06",79845.000,"cc",28291.197,6.00,2829.120,1,6,0.100,40475.000,0.200,32366.000,0.300,5900.000,0.500,717.000,1.000,387.000,5.000,0
"07/11/06","14:13:46","AMMA06",80162.000,"cc",28332.539,6.00,2833.254,1,6,0.100,40998.000,0.200,32402.000,0.300,5800.000,0.500,613.000,1.000,349.000,5.000,0
"07/11/06","14:13:52","AMMA06",80819.000,"cc",28390.193,6.00,2839.020,1,6,0.100,40868.000,0.200,32386.000,0.300,6281.000,0.500,846.000,1.000,438.000,5.000,0
"07/11/06","14:13:58","AMMA06",87889.000,"cc",28319.197,6.00,2831.920,1,6,0.100,45918.000,0.200,33513.000,0.300,6794.000,0.500,1076.000,1.000,588.000,5.000,0
"07/11/06","14:14:04","AMMA06",79182.000,"cc",28300.434,6.00,2830.044,1,6,0.100,40088.000,0.200,32049.000,0.300,6061.000,0.500,645.000,1.000,339.000,5.000,0
"07/11/06","14:14:10","AMMA06",83319.000,"cc",28331.182,6.00,2833.118,1,6,0.100,43779.000,0.200,32552.000,0.300,6004.000,0.500,664.000,1.000,320.000,5.000,0
"07/11/06","14:14:16","AMMA06",80853.000,"cc",28291.313,6.00,2829.131,1,6,0.100,41779.000,0.200,32024.000,0.300,5986.000,0.500,685.000,1.000,379.000,5.000,0